| time (UTC) | temp F | wind direction | speed MPH | gust MPH | rain 1hr in | rain 24hr in | rain mn in | humidity % | barometer mb |
| 20260509002519 | 71 | 5 | 0.0 | 0.0 | 0.00 | 0.00 | 0.00 | 90 | 1008.0 |
| 20260509002016 | 71 | 23 | 0.0 | 0.0 | 0.00 | 0.00 | 0.00 | 90 | 1007.9 |
| 20260509001513 | 71 | 333 | 0.0 | 0.0 | 0.00 | 0.00 | 0.00 | 90 | 1007.5 |
| 20260509001009 | 71 | 334 | 0.0 | 0.0 | 0.00 | 0.00 | 0.00 | 90 | 1007.8 |
| 20260509000508 | 71 | 268 | 0.0 | 0.0 | 0.00 | 0.00 | 0.00 | 90 | 1007.8 |
| 20260509000003 | 71 | 326 | 0.0 | 0.0 | 0.00 | 0.00 | 0.00 | 91 | 1007.2 |
| 20260508235501 | 71 | 352 | 0.0 | 0.0 | 0.00 | 0.00 | 0.00 | 91 | 1007.6 |
| 20260508234957 | 71 | 135 | 0.0 | 0.0 | 0.00 | 0.00 | 0.00 | 91 | 1007.5 |
| 20260508234454 | 71 | 160 | 1.0 | 2.0 | 0.00 | 0.00 | 0.00 | 91 | 1007.1 |
| 20260508233952 | 71 | 345 | 0.0 | 0.0 | 0.00 | 0.00 | 0.00 | 92 | 1007.6 |
| 20260508233451 | 71 | 117 | 0.0 | 0.0 | 0.00 | 0.00 | 0.00 | 92 | 1007.6 |
| 20260508232948 | 71 | 202 | 0.0 | 0.0 | 0.00 | 0.00 | 0.00 | 92 | 1007.2 |
| 20260508232444 | 71 | 112 | 0.0 | 0.0 | 0.00 | 0.00 | 0.00 | 92 | 1007.1 |
| 20260508231942 | 71 | 133 | 1.0 | 2.0 | 0.00 | 0.00 | 0.00 | 92 | 1007.1 |
| 20260508231439 | 71 | 203 | 0.0 | 0.0 | 0.00 | 0.00 | 0.00 | 92 | 1007.0 |
| 20260508230936 | 71 | 126 | 0.0 | 1.0 | 0.00 | 0.00 | 0.00 | 92 | 1007.0 |
| 20260508230432 | 71 | 84 | 0.0 | 0.0 | 0.00 | 0.00 | 0.00 | 92 | 1007.1 |
| 20260508225929 | 71 | 112 | 0.0 | 0.0 | 0.00 | 0.00 | 0.00 | 92 | 1006.6 |
| 20260508225426 | 71 | 18 | 0.0 | 0.0 | 0.00 | 0.00 | 0.00 | 92 | 1006.7 |
| 20260508224924 | 71 | 64 | 0.0 | 0.0 | 0.00 | 0.00 | 0.00 | 92 | 1006.7 |
| 20260508224421 | 71 | 133 | 0.0 | 1.0 | 0.00 | 0.00 | 0.00 | 92 | 1006.4 |
| 20260508223918 | 71 | 288 | 0.0 | 0.0 | 0.00 | 0.00 | 0.00 | 92 | 1006.6 |
| 20260508223417 | 71 | 44 | 0.0 | 0.0 | 0.00 | 0.00 | 0.00 | 92 | 1006.6 |
| 20260508222913 | 71 | 93 | 0.0 | 0.0 | 0.00 | 0.00 | 0.00 | 92 | 1006.7 |
| 20260508222410 | 72 | 124 | 0.0 | 0.0 | 0.00 | 0.00 | 0.00 | 92 | 1006.7 |
| 20260508221907 | 72 | 117 | 0.0 | 0.0 | 0.00 | 0.00 | 0.00 | 92 | 1006.5 |
| 20260508221402 | 72 | 103 | 0.0 | 0.0 | 0.00 | 0.00 | 0.00 | 92 | 1006.7 |
| 20260508220859 | 72 | 156 | 0.0 | 0.0 | 0.00 | 0.00 | 0.00 | 92 | 1006.5 |
| 20260508220355 | 72 | 160 | 0.0 | 0.0 | 0.00 | 0.00 | 0.00 | 92 | 1006.4 |
| 20260508215852 | 72 | 187 | 0.0 | 0.0 | 0.00 | 0.00 | 0.00 | 92 | 1006.6 |
| 20260508215349 | 72 | 341 | 0.0 | 0.0 | 0.00 | 0.00 | 0.00 | 92 | 1006.7 |
| 20260508214846 | 72 | 142 | 0.0 | 0.0 | 0.00 | 0.00 | 0.00 | 92 | 1006.7 |
| 20260508214343 | 72 | 152 | 1.0 | 2.0 | 0.00 | 0.00 | 0.00 | 92 | 1006.7 |
| 20260508213839 | 72 | 102 | 0.0 | 0.0 | 0.00 | 0.00 | 0.00 | 92 | 1006.6 |
| 20260508213336 | 72 | 141 | 0.0 | 0.0 | 0.00 | 0.00 | 0.00 | 91 | 1006.7 |
| 20260508212827 | 73 | 337 | 0.0 | 0.0 | 0.00 | 0.00 | 0.00 | 91 | 1006.8 |
| 20260508212324 | 73 | 101 | 0.0 | 0.0 | 0.00 | 0.00 | 0.00 | 91 | 1006.7 |
| 20260508211820 | 73 | 309 | 0.0 | 0.0 | 0.00 | 0.00 | 0.00 | 91 | 1006.8 |
| 20260508211315 | 73 | 311 | 0.0 | 0.0 | 0.00 | 0.00 | 0.00 | 91 | 1006.6 |
| 20260508210813 | 73 | 63 | 0.0 | 0.0 | 0.00 | 0.00 | 0.00 | 90 | 1006.7 |
| 20260508210310 | 73 | 28 | 0.0 | 0.0 | 0.00 | 0.00 | 0.00 | 90 | 1006.6 |
| 20260508205807 | 73 | 153 | 1.0 | 3.0 | 0.00 | 0.00 | 0.00 | 90 | 1006.8 |
| 20260508205306 | 73 | 162 | 1.0 | 2.0 | 0.00 | 0.00 | 0.00 | 90 | 1006.6 |
| 20260508204759 | 73 | 107 | 0.0 | 0.0 | 0.00 | 0.00 | 0.00 | 90 | 1006.8 |
| 20260508204256 | 73 | 278 | 0.0 | 0.0 | 0.00 | 0.00 | 0.00 | 90 | 1006.9 |
| 20260508203752 | 73 | 153 | 0.0 | 0.0 | 0.00 | 0.00 | 0.00 | 89 | 1006.7 |
| 20260508203249 | 73 | 321 | 0.0 | 0.0 | 0.00 | 0.00 | 0.00 | 89 | 1007.0 |
| 20260508202744 | 73 | 315 | 0.0 | 0.0 | 0.00 | 0.00 | 0.00 | 89 | 1006.6 |
| 20260508202242 | 73 | 300 | 0.0 | 0.0 | 0.00 | 0.00 | 0.00 | 89 | 1006.9 |
| 20260508201739 | 74 | 178 | 0.0 | 0.0 | 0.00 | 0.00 | 0.00 | 88 | 1006.9 |
| 20260508201235 | 74 | 15 | 0.0 | 0.0 | 0.00 | 0.00 | 0.00 | 89 | 1006.9 |
| 20260508200732 | 74 | 109 | 1.0 | 3.0 | 0.00 | 0.00 | 0.00 | 88 | 1007.1 |
| 20260508200228 | 74 | 137 | 3.0 | 3.0 | 0.00 | 0.00 | 0.00 | 88 | 1007.2 |
| 20260508195725 | 74 | 172 | 0.0 | 1.0 | 0.00 | 0.00 | 0.00 | 88 | 1007.2 |
| 20260508195221 | 74 | 14 | 0.0 | 0.0 | 0.00 | 0.00 | 0.00 | 88 | 1007.1 |
| 20260508194718 | 74 | 166 | 2.0 | 3.0 | 0.00 | 0.00 | 0.00 | 88 | 1007.3 |
| 20260508194215 | 74 | 61 | 0.0 | 1.0 | 0.00 | 0.00 | 0.00 | 87 | 1007.2 |
| 20260508193712 | 74 | 183 | 0.0 | 0.0 | 0.00 | 0.00 | 0.00 | 87 | 1007.5 |
| 20260508193208 | 74 | 73 | 0.0 | 0.0 | 0.00 | 0.00 | 0.00 | 87 | 1007.5 |
| 20260508192705 | 74 | 134 | 2.0 | 3.0 | 0.00 | 0.00 | 0.00 | 87 | 1007.3 |
| 20260508192202 | 75 | 149 | 2.0 | 5.0 | 0.00 | 0.00 | 0.00 | 87 | 1007.2 |
| 20260508191659 | 75 | 212 | 0.0 | 0.0 | 0.00 | 0.00 | 0.00 | 87 | 1007.3 |
| 20260508191155 | 75 | 244 | 0.0 | 1.0 | 0.00 | 0.00 | 0.00 | 87 | 1007.5 |
| 20260508190653 | 75 | 132 | 2.0 | 5.0 | 0.00 | 0.00 | 0.00 | 87 | 1007.3 |
| 20260508190149 | 75 | 62 | 0.0 | 1.0 | 0.00 | 0.00 | 0.00 | 88 | 1007.5 |
| 20260508185646 | 75 | 194 | 0.0 | 0.0 | 0.00 | 0.00 | 0.00 | 88 | 1007.8 |
| 20260508185144 | 75 | 91 | 0.0 | 1.0 | 0.00 | 0.00 | 0.00 | 88 | 1007.8 |
| 20260508184640 | 75 | 187 | 1.0 | 1.0 | 0.00 | 0.00 | 0.00 | 87 | 1007.9 |
| 20260508184137 | 76 | 168 | 0.0 | 0.0 | 0.00 | 0.00 | 0.00 | 87 | 1007.9 |
| 20260508183634 | 76 | 142 | 1.0 | 2.0 | 0.00 | 0.00 | 0.00 | 87 | 1008.0 |
| 20260508183130 | 76 | 337 | 0.0 | 0.0 | 0.00 | 0.00 | 0.00 | 87 | 1008.0 |
| 20260508182626 | 76 | 322 | 0.0 | 0.0 | 0.00 | 0.00 | 0.00 | 87 | 1008.2 |
| 20260508182123 | 76 | 342 | 3.0 | 6.0 | 0.00 | 0.00 | 0.00 | 87 | 1008.3 |
| 20260508181618 | 76 | 171 | 0.0 | 0.0 | 0.00 | 0.00 | 0.00 | 87 | 1008.4 |
| 20260508181116 | 76 | 202 | 0.0 | 0.0 | 0.00 | 0.00 | 0.00 | 87 | 1008.7 |
| 20260508180613 | 76 | 164 | 1.0 | 2.0 | 0.00 | 0.00 | 0.00 | 87 | 1008.5 |
| 20260508180109 | 76 | 92 | 0.0 | 0.0 | 0.00 | 0.00 | 0.00 | 86 | 1008.7 |
| 20260508175606 | 76 | 85 | 1.0 | 1.0 | 0.00 | 0.00 | 0.00 | 86 | 1008.8 |
| 20260508175103 | 76 | 134 | 0.0 | 0.0 | 0.00 | 0.00 | 0.00 | 86 | 1008.5 |
| 20260508174601 | 76 | 195 | 0.0 | 0.0 | 0.00 | 0.00 | 0.00 | 86 | 1008.8 |
| 20260508174057 | 76 | 136 | 0.0 | 2.0 | 0.00 | 0.00 | 0.00 | 86 | 1008.9 |
| 20260508173554 | 76 | 185 | 0.0 | 1.0 | 0.00 | 0.00 | 0.00 | 86 | 1008.9 |
| 20260508173050 | 76 | 110 | 0.0 | 0.0 | 0.00 | 0.00 | 0.00 | 86 | 1009.0 |
| 20260508172548 | 77 | 112 | 1.0 | 2.0 | 0.00 | 0.00 | 0.00 | 86 | 1009.0 |
| 20260508172044 | 77 | 0 | 0.0 | 0.0 | 0.00 | 0.00 | 0.00 | 86 | 1009.0 |
| 20260508171541 | 77 | 53 | 1.0 | 3.0 | 0.00 | 0.00 | 0.00 | 86 | 1008.9 |
| 20260508171038 | 77 | 148 | 1.0 | 3.0 | 0.00 | 0.00 | 0.00 | 86 | 1009.0 |
| 20260508170535 | 77 | 118 | 1.0 | 2.0 | 0.00 | 0.00 | 0.00 | 85 | 1008.9 |
| 20260508170032 | 77 | 307 | 0.0 | 2.0 | 0.00 | 0.00 | 0.00 | 86 | 1009.1 |
| 20260508165529 | 77 | 197 | 4.0 | 5.0 | 0.00 | 0.00 | 0.00 | 85 | 1008.8 |
| 20260508165026 | 77 | 102 | 1.0 | 2.0 | 0.00 | 0.00 | 0.00 | 85 | 1009.0 |
| 20260508164522 | 77 | 248 | 0.0 | 0.0 | 0.00 | 0.00 | 0.00 | 85 | 1008.9 |
| 20260508164019 | 77 | 149 | 1.0 | 3.0 | 0.00 | 0.00 | 0.00 | 84 | 1008.8 |
| 20260508163517 | 77 | 349 | 0.0 | 0.0 | 0.00 | 0.00 | 0.00 | 85 | 1008.8 |
| 20260508163013 | 77 | 114 | 3.0 | 8.0 | 0.00 | 0.00 | 0.00 | 84 | 1008.5 |
| 20260508162510 | 77 | 175 | 2.0 | 3.0 | 0.00 | 0.00 | 0.00 | 84 | 1008.7 |
| 20260508162007 | 77 | 134 | 0.0 | 0.0 | 0.00 | 0.00 | 0.00 | 84 | 1008.5 |
| 20260508161504 | 78 | 49 | 0.0 | 0.0 | 0.00 | 0.00 | 0.00 | 84 | 1008.9 |
| 20260508161001 | 78 | 358 | 0.0 | 0.0 | 0.00 | 0.00 | 0.00 | 84 | 1008.7 |
| 20260508160500 | 78 | 96 | 1.0 | 2.0 | 0.00 | 0.00 | 0.00 | 83 | 1008.4 |
| 20260508155955 | 78 | 206 | 2.0 | 6.0 | 0.00 | 0.00 | 0.00 | 83 | 1008.2 |
| 20260508155453 | 78 | 193 | 4.0 | 9.0 | 0.00 | 0.00 | 0.00 | 83 | 1008.3 |
| 20260508154949 | 78 | 91 | 1.0 | 1.0 | 0.00 | 0.00 | 0.00 | 83 | 1008.2 |
| 20260508154448 | 78 | 154 | 1.0 | 2.0 | 0.00 | 0.00 | 0.00 | 83 | 1008.1 |
| 20260508153944 | 78 | 204 | 1.0 | 2.0 | 0.00 | 0.00 | 0.00 | 83 | 1008.3 |
| 20260508153441 | 78 | 283 | 0.0 | 1.0 | 0.00 | 0.00 | 0.00 | 82 | 1007.9 |
| 20260508152937 | 78 | 146 | 5.0 | 7.0 | 0.00 | 0.00 | 0.00 | 82 | 1008.0 |
| 20260508152434 | 78 | 114 | 0.0 | 2.0 | 0.00 | 0.00 | 0.00 | 82 | 1007.9 |
| 20260508151930 | 78 | 157 | 2.0 | 2.0 | 0.00 | 0.00 | 0.00 | 81 | 1007.7 |
| 20260508151427 | 79 | 180 | 2.0 | 5.0 | 0.00 | 0.00 | 0.00 | 81 | 1007.9 |
| 20260508150924 | 79 | 106 | 2.0 | 6.0 | 0.00 | 0.00 | 0.00 | 81 | 1007.8 |
| 20260508150420 | 79 | 109 | 1.0 | 3.0 | 0.00 | 0.00 | 0.00 | 81 | 1007.9 |
| 20260508145916 | 79 | 264 | 3.0 | 6.0 | 0.00 | 0.00 | 0.00 | 80 | 1007.8 |
| 20260508145413 | 79 | 124 | 3.0 | 5.0 | 0.00 | 0.00 | 0.00 | 79 | 1007.6 |
| 20260508144909 | 79 | 175 | 1.0 | 3.0 | 0.00 | 0.00 | 0.00 | 79 | 1007.6 |
| 20260508144407 | 79 | 137 | 2.0 | 7.0 | 0.00 | 0.00 | 0.00 | 78 | 1007.2 |
| 20260508143904 | 80 | 148 | 1.0 | 7.0 | 0.00 | 0.00 | 0.00 | 78 | 1007.2 |
| 20260508143402 | 80 | 0 | 0.0 | 1.0 | 0.00 | 0.00 | 0.00 | 77 | 1006.9 |
| 20260508142858 | 80 | 193 | 0.0 | 2.0 | 0.00 | 0.00 | 0.00 | 77 | 1006.8 |
| 20260508142355 | 80 | 186 | 2.0 | 3.0 | 0.00 | 0.00 | 0.00 | 76 | 1007.0 |
| 20260508141851 | 80 | 121 | 0.0 | 1.0 | 0.00 | 0.00 | 0.00 | 76 | 1006.8 |
| 20260508141348 | 80 | 179 | 0.0 | 0.0 | 0.00 | 0.00 | 0.00 | 75 | 1006.9 |
| 20260508140846 | 80 | 109 | 3.0 | 3.0 | 0.00 | 0.00 | 0.00 | 75 | 1006.7 |
| 20260508140343 | 80 | 212 | 0.0 | 0.0 | 0.00 | 0.00 | 0.00 | 74 | 1006.5 |
| 20260508135838 | 80 | 176 | 1.0 | 5.0 | 0.00 | 0.00 | 0.00 | 72 | 1006.6 |
| 20260508135335 | 80 | 94 | 0.0 | 1.0 | 0.00 | 0.00 | 0.00 | 71 | 1006.7 |
| 20260508134831 | 80 | 194 | 1.0 | 2.0 | 0.00 | 0.00 | 0.00 | 70 | 1006.7 |
| 20260508134328 | 80 | 335 | 0.0 | 0.0 | 0.00 | 0.00 | 0.00 | 68 | 1006.6 |
| 20260508133825 | 80 | 347 | 0.0 | 0.0 | 0.00 | 0.00 | 0.00 | 65 | 1006.3 |
| 20260508133324 | 80 | 3 | 0.0 | 0.0 | 0.00 | 0.00 | 0.00 | 64 | 1006.1 |
| 20260508132820 | 80 | 149 | 3.0 | 3.0 | 0.00 | 0.00 | 0.00 | 63 | 1006.3 |
| 20260508132318 | 80 | 109 | 0.0 | 0.0 | 0.00 | 0.00 | 0.00 | 64 | 1005.9 |
| 20260508131814 | 80 | 179 | 1.0 | 2.0 | 0.00 | 0.00 | 0.00 | 63 | 1005.7 |
| 20260508131310 | 80 | 111 | 4.0 | 6.0 | 0.00 | 0.00 | 0.00 | 64 | 1006.1 |
| 20260508130807 | 80 | 171 | 5.0 | 7.0 | 0.00 | 0.00 | 0.00 | 64 | 1005.8 |
| 20260508130304 | 81 | 114 | 1.0 | 3.0 | 0.00 | 0.00 | 0.00 | 63 | 1005.7 |
| 20260508125800 | 81 | 88 | 2.0 | 5.0 | 0.00 | 0.00 | 0.00 | 63 | 1005.9 |
| 20260508125256 | 81 | 199 | 2.0 | 7.0 | 0.00 | 0.00 | 0.00 | 63 | 1005.5 |
| 20260508124754 | 82 | 231 | 0.0 | 0.0 | 0.00 | 0.00 | 0.00 | 64 | 1005.6 |
| 20260508124251 | 84 | 90 | 6.0 | 11.0 | 0.00 | 0.00 | 0.00 | 68 | 1005.2 |
| 20260508123749 | 87 | 326 | 1.0 | 3.0 | 0.00 | 0.00 | 0.00 | 63 | 1005.1 |
| 20260508123246 | 87 | 79 | 6.0 | 8.0 | 0.00 | 0.00 | 0.00 | 55 | 1004.7 |
| 20260508122742 | 87 | 353 | 0.0 | 0.0 | 0.00 | 0.00 | 0.00 | 55 | 1004.8 |
| 20260508122239 | 87 | 119 | 0.0 | 0.0 | 0.00 | 0.00 | 0.00 | 53 | 1004.6 |
| 20260508121737 | 88 | 305 | 0.0 | 0.0 | 0.00 | 0.00 | 0.00 | 52 | 1004.5 |
| 20260508121235 | 88 | 88 | 1.0 | 2.0 | 0.00 | 0.00 | 0.00 | 51 | 1004.5 |
| 20260508120732 | 88 | 34 | 0.0 | 1.0 | 0.00 | 0.00 | 0.00 | 52 | 1004.4 |
| 20260508120230 | 88 | 20 | 1.0 | 2.0 | 0.00 | 0.00 | 0.00 | 51 | 1004.5 |
| 20260508115728 | 88 | 285 | 0.0 | 1.0 | 0.00 | 0.00 | 0.00 | 51 | 1004.3 |
| 20260508115225 | 89 | 193 | 1.0 | 2.0 | 0.00 | 0.00 | 0.00 | 50 | 1004.3 |
| 20260508114721 | 89 | 46 | 0.0 | 1.0 | 0.00 | 0.00 | 0.00 | 50 | 1004.3 |
| 20260508114218 | 89 | 139 | 0.0 | 1.0 | 0.00 | 0.00 | 0.00 | 50 | 1004.4 |
| 20260508113714 | 89 | 313 | 0.0 | 0.0 | 0.00 | 0.00 | 0.00 | 51 | 1004.3 |
| 20260508113213 | 88 | 140 | 0.0 | 0.0 | 0.00 | 0.00 | 0.00 | 51 | 1004.5 |
| 20260508112709 | 89 | 157 | 0.0 | 1.0 | 0.00 | 0.00 | 0.00 | 50 | 1004.6 |
| 20260508112206 | 89 | 103 | 2.0 | 3.0 | 0.00 | 0.00 | 0.00 | 50 | 1004.4 |
| 20260508111702 | 89 | 52 | 3.0 | 5.0 | 0.00 | 0.00 | 0.00 | 50 | 1004.6 |
| 20260508111200 | 88 | 87 | 1.0 | 3.0 | 0.00 | 0.00 | 0.00 | 51 | 1004.5 |
| 20260508110658 | 88 | 145 | 0.0 | 1.0 | 0.00 | 0.00 | 0.00 | 52 | 1004.7 |
| 20260508110155 | 88 | 155 | 0.0 | 2.0 | 0.00 | 0.00 | 0.00 | 52 | 1004.7 |
| 20260508105654 | 89 | 154 | 1.0 | 3.0 | 0.00 | 0.00 | 0.00 | 51 | 1004.6 |
| 20260508105151 | 89 | 277 | 5.0 | 6.0 | 0.00 | 0.00 | 0.00 | 51 | 1004.7 |
| 20260508104649 | 91 | 173 | 0.0 | 2.0 | 0.00 | 0.00 | 0.00 | 49 | 1004.5 |
| 20260508104145 | 90 | 301 | 0.0 | 0.0 | 0.00 | 0.00 | 0.00 | 50 | 1004.5 |
| 20260508103643 | 90 | 347 | 0.0 | 0.0 | 0.00 | 0.00 | 0.00 | 50 | 1004.6 |
| 20260508103140 | 89 | 332 | 0.0 | 1.0 | 0.00 | 0.00 | 0.00 | 51 | 1004.5 |
| 20260508102637 | 89 | 134 | 2.0 | 6.0 | 0.00 | 0.00 | 0.00 | 51 | 1004.4 |
| 20260508102135 | 89 | 299 | 0.0 | 0.0 | 0.00 | 0.00 | 0.00 | 51 | 1004.5 |
| 20260508101632 | 89 | 193 | 0.0 | 1.0 | 0.00 | 0.00 | 0.00 | 52 | 1004.4 |
| 20260508101129 | 90 | 116 | 6.0 | 7.0 | 0.00 | 0.00 | 0.00 | 51 | 1004.9 |
| 20260508100626 | 90 | 348 | 0.0 | 1.0 | 0.00 | 0.00 | 0.00 | 51 | 1004.7 |
| 20260508100125 | 90 | 290 | 0.0 | 0.0 | 0.00 | 0.00 | 0.00 | 51 | 1004.9 |
| 20260508095621 | 88 | 42 | 1.0 | 1.0 | 0.00 | 0.00 | 0.00 | 52 | 1004.9 |
| 20260508095119 | 87 | 67 | 1.0 | 3.0 | 0.00 | 0.00 | 0.00 | 54 | 1004.9 |
| 20260508094615 | 88 | 123 | 0.0 | 1.0 | 0.00 | 0.00 | 0.00 | 53 | 1004.8 |
| 20260508094111 | 88 | 186 | 1.0 | 2.0 | 0.00 | 0.00 | 0.00 | 53 | 1005.4 |
| 20260508093609 | 89 | 1 | 2.0 | 3.0 | 0.00 | 0.00 | 0.00 | 52 | 1005.1 |
| 20260508093107 | 89 | 173 | 3.0 | 6.0 | 0.00 | 0.00 | 0.00 | 51 | 1005.1 |
| 20260508092603 | 88 | 209 | 0.0 | 0.0 | 0.00 | 0.00 | 0.00 | 53 | 1005.2 |
| 20260508092102 | 89 | 82 | 0.0 | 1.0 | 0.00 | 0.00 | 0.00 | 52 | 1005.1 |
| 20260508091559 | 91 | 98 | 1.0 | 2.0 | 0.00 | 0.00 | 0.00 | 51 | 1005.2 |
| 20260508091055 | 90 | 285 | 0.0 | 0.0 | 0.00 | 0.00 | 0.00 | 52 | 1005.3 |
| 20260508090554 | 90 | 126 | 1.0 | 2.0 | 0.00 | 0.00 | 0.00 | 51 | 1005.2 |
| 20260508090050 | 90 | 120 | 0.0 | 0.0 | 0.00 | 0.00 | 0.00 | 51 | 1005.4 |
| 20260508085547 | 89 | 137 | 3.0 | 6.0 | 0.00 | 0.00 | 0.00 | 52 | 1005.6 |
| 20260508085044 | 89 | 256 | 0.0 | 0.0 | 0.00 | 0.00 | 0.00 | 53 | 1005.6 |
| 20260508084541 | 89 | 313 | 1.0 | 1.0 | 0.00 | 0.00 | 0.00 | 52 | 1005.7 |
| 20260508084038 | 89 | 285 | 0.0 | 0.0 | 0.00 | 0.00 | 0.00 | 53 | 1005.7 |
| 20260508083535 | 88 | 137 | 1.0 | 3.0 | 0.00 | 0.00 | 0.00 | 53 | 1005.6 |
| 20260508083032 | 89 | 198 | 0.0 | 1.0 | 0.00 | 0.00 | 0.00 | 52 | 1005.7 |
| 20260508082528 | 89 | 64 | 3.0 | 6.0 | 0.00 | 0.00 | 0.00 | 52 | 1005.9 |
| 20260508082025 | 87 | 315 | 1.0 | 5.0 | 0.00 | 0.00 | 0.00 | 54 | 1005.9 |
| 20260508081523 | 87 | 149 | 0.0 | 1.0 | 0.00 | 0.00 | 0.00 | 56 | 1006.0 |
| 20260508081018 | 87 | 103 | 2.0 | 5.0 | 0.00 | 0.00 | 0.00 | 56 | 1006.3 |
| 20260508080516 | 87 | 100 | 0.0 | 1.0 | 0.00 | 0.00 | 0.00 | 56 | 1006.4 |
| 20260508080014 | 87 | 257 | 3.0 | 6.0 | 0.00 | 0.00 | 0.00 | 55 | 1006.5 |
| 20260508075510 | 87 | 96 | 1.0 | 2.0 | 0.00 | 0.00 | 0.00 | 55 | 1006.7 |
| 20260508075008 | 87 | 178 | 2.0 | 3.0 | 0.00 | 0.00 | 0.00 | 56 | 1006.5 |
| 20260508074506 | 89 | 343 | 2.0 | 3.0 | 0.00 | 0.00 | 0.00 | 54 | 1006.7 |
| 20260508074002 | 89 | 16 | 1.0 | 2.0 | 0.00 | 0.00 | 0.00 | 53 | 1006.8 |
| 20260508073459 | 88 | 65 | 0.0 | 1.0 | 0.00 | 0.00 | 0.00 | 55 | 1006.9 |
| 20260508072956 | 89 | 216 | 0.0 | 1.0 | 0.00 | 0.00 | 0.00 | 54 | 1006.9 |
| 20260508072452 | 89 | 346 | 0.0 | 0.0 | 0.00 | 0.00 | 0.00 | 56 | 1006.7 |
| 20260508071949 | 89 | 339 | 1.0 | 2.0 | 0.00 | 0.00 | 0.00 | 54 | 1006.8 |
| 20260508071448 | 88 | 95 | 0.0 | 1.0 | 0.00 | 0.00 | 0.00 | 56 | 1006.9 |
| 20260508070945 | 88 | 32 | 0.0 | 0.0 | 0.00 | 0.00 | 0.00 | 57 | 1007.1 |
| 20260508070443 | 88 | 296 | 0.0 | 0.0 | 0.00 | 0.00 | 0.00 | 58 | 1006.9 |
| 20260508065941 | 88 | 60 | 0.0 | 1.0 | 0.00 | 0.00 | 0.00 | 57 | 1006.8 |
| 20260508065438 | 88 | 68 | 0.0 | 1.0 | 0.00 | 0.00 | 0.00 | 57 | 1007.0 |
| 20260508064936 | 87 | 261 | 0.0 | 0.0 | 0.00 | 0.00 | 0.00 | 58 | 1007.0 |
| 20260508064433 | 86 | 145 | 1.0 | 2.0 | 0.00 | 0.00 | 0.00 | 60 | 1007.1 |
| 20260508063931 | 86 | 288 | 0.0 | 1.0 | 0.00 | 0.00 | 0.00 | 61 | 1007.5 |
| 20260508063428 | 86 | 306 | 0.0 | 0.0 | 0.00 | 0.00 | 0.00 | 62 | 1007.3 |
| 20260508062925 | 86 | 33 | 1.0 | 2.0 | 0.00 | 0.00 | 0.00 | 62 | 1007.5 |
| 20260508062423 | 86 | 80 | 0.0 | 0.0 | 0.00 | 0.00 | 0.00 | 61 | 1007.8 |
| 20260508061920 | 86 | 50 | 0.0 | 1.0 | 0.00 | 0.00 | 0.00 | 62 | 1007.7 |
| 20260508061418 | 85 | 102 | 1.0 | 1.0 | 0.00 | 0.00 | 0.00 | 62 | 1008.0 |
| 20260508060913 | 85 | 336 | 0.0 | 0.0 | 0.00 | 0.00 | 0.00 | 64 | 1007.9 |
| 20260508060411 | 86 | 326 | 0.0 | 0.0 | 0.00 | 0.00 | 0.00 | 63 | 1008.0 |
| 20260508055908 | 86 | 288 | 0.0 | 0.0 | 0.00 | 0.00 | 0.00 | 63 | 1008.0 |
| 20260508055405 | 86 | 258 | 0.0 | 0.0 | 0.00 | 0.00 | 0.00 | 63 | 1008.2 |
| 20260508054901 | 85 | 182 | 0.0 | 0.0 | 0.00 | 0.00 | 0.00 | 65 | 1008.1 |
| 20260508054358 | 85 | 141 | 0.0 | 1.0 | 0.00 | 0.00 | 0.00 | 64 | 1008.2 |
| 20260508053855 | 85 | 53 | 0.0 | 0.0 | 0.00 | 0.00 | 0.00 | 64 | 1008.2 |
| 20260508053352 | 85 | 349 | 0.0 | 0.0 | 0.00 | 0.00 | 0.00 | 64 | 1008.4 |
| 20260508052850 | 86 | 352 | 1.0 | 3.0 | 0.00 | 0.00 | 0.00 | 64 | 1008.7 |
| 20260508052348 | 84 | 343 | 0.0 | 0.0 | 0.00 | 0.00 | 0.00 | 68 | 1008.7 |
| 20260508051843 | 84 | 122 | 0.0 | 0.0 | 0.00 | 0.00 | 0.00 | 68 | 1008.7 |
| 20260508051339 | 82 | 335 | 0.0 | 0.0 | 0.00 | 0.00 | 0.00 | 71 | 1008.4 |
| 20260508050835 | 82 | 4 | 2.0 | 3.0 | 0.00 | 0.00 | 0.00 | 71 | 1008.8 |
| 20260508050333 | 82 | 26 | 3.0 | 3.0 | 0.00 | 0.00 | 0.00 | 71 | 1008.8 |
| 20260508045828 | 83 | 78 | 0.0 | 1.0 | 0.00 | 0.00 | 0.00 | 69 | 1008.7 |
| 20260508045326 | 83 | 16 | 0.0 | 0.0 | 0.00 | 0.00 | 0.00 | 70 | 1008.7 |
| 20260508044823 | 83 | 18 | 1.0 | 2.0 | 0.00 | 0.00 | 0.00 | 69 | 1009.0 |
| 20260508044320 | 82 | 112 | 0.0 | 1.0 | 0.00 | 0.00 | 0.00 | 71 | 1009.0 |
| 20260508043816 | 82 | 323 | 0.0 | 0.0 | 0.00 | 0.00 | 0.00 | 72 | 1008.8 |
| 20260508043314 | 84 | 1 | 0.0 | 0.0 | 0.00 | 0.00 | 0.00 | 70 | 1008.8 |
| 20260508042810 | 84 | 357 | 1.0 | 2.0 | 0.00 | 0.00 | 0.00 | 70 | 1008.7 |
| 20260508042308 | 83 | 18 | 0.0 | 0.0 | 0.00 | 0.00 | 0.00 | 71 | 1008.5 |
| 20260508041804 | 83 | 83 | 1.0 | 2.0 | 0.00 | 0.00 | 0.00 | 73 | 1008.7 |
| 20260508041301 | 81 | 326 | 0.0 | 0.0 | 0.00 | 0.00 | 0.00 | 75 | 1008.7 |
| 20260508040757 | 82 | 129 | 0.0 | 1.0 | 0.00 | 0.00 | 0.00 | 74 | 1008.8 |
| 20260508040255 | 81 | 96 | 0.0 | 1.0 | 0.00 | 0.00 | 0.00 | 76 | 1008.8 |
| 20260508035752 | 82 | 9 | 0.0 | 0.0 | 0.00 | 0.00 | 0.00 | 76 | 1008.9 |
| 20260508035249 | 81 | 85 | 0.0 | 1.0 | 0.00 | 0.00 | 0.00 | 75 | 1009.1 |
| 20260508034745 | 81 | 336 | 2.0 | 6.0 | 0.00 | 0.00 | 0.00 | 75 | 1008.9 |
| 20260508034243 | 81 | 295 | 2.0 | 2.0 | 0.00 | 0.00 | 0.00 | 76 | 1009.0 |
| 20260508033740 | 80 | 333 | 2.0 | 5.0 | 0.00 | 0.00 | 0.00 | 77 | 1009.0 |
| 20260508033238 | 79 | 306 | 0.0 | 0.0 | 0.00 | 0.00 | 0.00 | 80 | 1008.9 |
| 20260508032736 | 79 | 131 | 0.0 | 1.0 | 0.00 | 0.00 | 0.00 | 81 | 1009.0 |
| 20260508032232 | 80 | 119 | 0.0 | 0.0 | 0.00 | 0.00 | 0.00 | 80 | 1009.1 |
| 20260508031729 | 79 | 122 | 0.0 | 0.0 | 0.00 | 0.00 | 0.00 | 82 | 1009.3 |
| 20260508031225 | 78 | 122 | 1.0 | 2.0 | 0.00 | 0.00 | 0.00 | 83 | 1008.9 |
| 20260508030722 | 79 | 166 | 0.0 | 1.0 | 0.00 | 0.00 | 0.00 | 83 | 1008.9 |
| 20260508030220 | 78 | 138 | 0.0 | 0.0 | 0.00 | 0.00 | 0.00 | 83 | 1009.0 |
| 20260508025716 | 78 | 340 | 0.0 | 0.0 | 0.00 | 0.00 | 0.00 | 85 | 1009.0 |
| 20260508025213 | 77 | 152 | 1.0 | 2.0 | 0.00 | 0.00 | 0.00 | 85 | 1009.0 |
| 20260508024709 | 77 | 114 | 0.0 | 0.0 | 0.00 | 0.00 | 0.00 | 86 | 1009.0 |
| 20260508024206 | 77 | 142 | 1.0 | 1.0 | 0.00 | 0.00 | 0.00 | 86 | 1009.1 |
| 20260508023702 | 76 | 112 | 3.0 | 5.0 | 0.00 | 0.00 | 0.00 | 87 | 1009.1 |
| 20260508023200 | 76 | 150 | 0.0 | 0.0 | 0.00 | 0.00 | 0.00 | 87 | 1009.1 |
| 20260508022655 | 76 | 109 | 0.0 | 1.0 | 0.00 | 0.00 | 0.00 | 88 | 1009.1 |
| 20260508022153 | 75 | 120 | 0.0 | 1.0 | 0.00 | 0.00 | 0.00 | 89 | 1008.8 |
| 20260508021649 | 75 | 12 | 0.0 | 0.0 | 0.00 | 0.00 | 0.00 | 89 | 1008.7 |
| 20260508021144 | 75 | 172 | 3.0 | 5.0 | 0.00 | 0.00 | 0.00 | 89 | 1008.8 |
| 20260508020642 | 75 | 324 | 1.0 | 3.0 | 0.00 | 0.00 | 0.00 | 90 | 1009.0 |
| 20260508020140 | 75 | 158 | 0.0 | 0.0 | 0.00 | 0.00 | 0.00 | 90 | 1008.8 |
| 20260508015637 | 75 | 65 | 0.0 | 0.0 | 0.00 | 0.00 | 0.00 | 91 | 1008.8 |
| 20260508015134 | 75 | 135 | 0.0 | 0.0 | 0.00 | 0.00 | 0.00 | 91 | 1008.4 |
| 20260508014630 | 75 | 226 | 0.0 | 0.0 | 0.00 | 0.00 | 0.00 | 91 | 1008.3 |
| 20260508014126 | 74 | 87 | 0.0 | 0.0 | 0.00 | 0.00 | 0.00 | 91 | 1008.4 |
| 20260508013623 | 74 | 133 | 0.0 | 1.0 | 0.00 | 0.00 | 0.00 | 92 | 1008.2 |
| 20260508013120 | 74 | 143 | 0.0 | 0.0 | 0.00 | 0.00 | 0.00 | 92 | 1008.3 |
| 20260508012617 | 74 | 184 | 0.0 | 0.0 | 0.00 | 0.00 | 0.00 | 92 | 1008.1 |
| 20260508012114 | 74 | 137 | 0.0 | 1.0 | 0.00 | 0.00 | 0.00 | 92 | 1008.0 |
| 20260508011613 | 74 | 271 | 0.0 | 0.0 | 0.00 | 0.00 | 0.00 | 92 | 1008.0 |
| 20260508011110 | 74 | 36 | 0.0 | 0.0 | 0.00 | 0.00 | 0.00 | 92 | 1007.8 |
| 20260508010606 | 74 | 120 | 0.0 | 0.0 | 0.00 | 0.00 | 0.00 | 92 | 1007.9 |
| 20260508010105 | 74 | 193 | 0.0 | 0.0 | 0.00 | 0.00 | 0.00 | 92 | 1008.0 |
| 20260508005601 | 74 | 54 | 0.0 | 0.0 | 0.00 | 0.00 | 0.00 | 92 | 1008.0 |
| 20260508005057 | 74 | 262 | 0.0 | 0.0 | 0.00 | 0.00 | 0.00 | 92 | 1007.7 |
| 20260508004553 | 74 | 341 | 0.0 | 0.0 | 0.00 | 0.00 | 0.00 | 92 | 1007.9 |
| 20260508004050 | 74 | 342 | 0.0 | 0.0 | 0.00 | 0.00 | 0.00 | 92 | 1007.7 |
| 20260508003546 | 74 | 171 | 0.0 | 0.0 | 0.00 | 0.00 | 0.00 | 92 | 1007.8 |
| 20260508003044 | 74 | 146 | 0.0 | 0.0 | 0.00 | 0.00 | 0.00 | 92 | 1007.5 |